Other Public Products
Issued by NWS Grand Forks, ND

Home | Current Version | Previous Version | Text Only | Print | Product List | Glossary Off
Versions: 1 2 3 4 5 6 7 8 9 10 11 12 13 14 15 16 17 18 19 20 21 22 23 24 25 26 27 28 29 30 31 32 33 34 35 36 37 38 39 40 41 42 43 44 45 46 47 48 49 50

000
FPUS83 KFGF 280131
OPUFGF
PRAIRIE TO PINES WEATHER ROUNDUP
NATIONAL WEATHER SERVICE EASTERN NORTH DAKOTA/GRAND FORKS ND
800 PM CDT SAT MAY 27 2017

 **SATELLITE DATA USED TO AUGMENT SKY COVER AT AUTOMATED STATIONS**
 *****  WEATHER ACROSS EASTERN NORTH DAKOTA  *****

CITY           SKY/WX    TMP DP  RH WIND       PRES   REMARKS
GRAND FORKS    PTSUNNY   71  48  43 CALM      29.67F
GRAND FORKS AF PTSUNNY   69  41  36 NW7       29.69F
GRAND CITY NWS NOT AVBL
BUXTON           N/A     71  44  36 W10         N/A
DEVILS LAKE    FAIR      54  48  80 NW10      29.79S
FARGO          FAIR      73  38  27 SW13      29.71F
WAHPETON ARPT  FAIR      70  39  32 SW13      29.76S
$$

 *****  WEATHER ACROSS CENTRAL AND WESTERN NORTH DAKOTA  *****

CITY           SKY/WX    TMP DP  RH WIND       PRES   REMARKS
JAMESTOWN      PTSUNNY   58  45  62 N24G36    29.80R
BISMARCK       FAIR      66  44  45 N7        29.84S
MINOT          FAIR      62  44  51 NW8       29.81S
MINOT AFB      FAIR      62  46  57 NW5       29.80S
GARRISON         N/A     63  41  44 N13       29.82S
WILLISTON      FAIR      74  33  22 NW18G33   29.85R
DICKINSON      FAIR      65  36  34 W29G39    29.87R
HETTINGER      FAIR      67  39  35 NW18      29.93S
$$

 *****  OTHER OBSERVATIONS NORTHEAST NORTH DAKOTA  *****

CITY           SKY/WX    TMP DP  RH WIND       PRES   REMARKS
WALHALLA       NOT AVBL
LANGDON        LGT RAIN  50  50 100 W21G28    29.76S
CAVALIER       LGT RAIN  59  45  58 NW20G30   29.70R
GRAFTON        CLOUDY    61  50  67 W20       29.74R
CANDO          NOT AVBL
FORT TOTTEN      N/A     54  50  85 W2        29.95S
ROLLA          FAIR      57  45  62 N10       29.78S
RUGBY          NOT AVBL
 ***** THE ABOVE OBSERVATIONS ARE NON NWS ARE NOT QUALITY
        CONTROLLED AND MAY MIS-REPORT RAIN FOR SNOW...
$$

 *****  OTHER OBSERVATIONS SOUTHEAST NORTH DAKOTA *****

CITY           SKY/WX    TMP DP  RH WIND       PRES   REMARKS
COOPERSTOWN    FAIR      55  46  71 NW22G32   29.79S
VALLEY CITY    CLOUDY    59  43  55 NW30G43   29.81R
OAKES          NOT AVBL
GWINNER        PTCLDY    70  41  35 MISG      29.76S
SHEYENNE NWR     N/A     73  40  29 W8        29.95S
BUFFALO          N/A     70  33  24 W14G25      N/A
WYNDMERE         N/A     73  37  27 W12         N/A
 ***** THE ABOVE OBSERVATIONS ARE NON NWS ARE NOT QUALITY
       CONTROLLED AND MAY MIS-REPORT RAIN FOR SNOW...
$$

  *****  WEATHER ACROSS NORTHERN MINNESOTA  *****

CITY           SKY/WX    TMP DP  RH WIND       PRES   REMARKS
FLAG ISLAND    MOCLDY    63  45  51 SE3       29.67S
WARROAD        FAIR      64  46  52 SW5       29.69F
ROSEAU         FAIR      64  48  55 S7        29.69S
HALLOCK        PTSUNNY   63  50  63 S9        29.68F
THF RVR FALLS  MOCLDY    60  49  66 N6        29.72F
HALSTAD          N/A     71  41  34 W8          N/A
FOSSTON        FAIR      64  39  39 NW10      29.74R
BAUDETTE       FAIR      64  42  44 SW6       29.70F
WASKISH        FAIR      64  45  48 CALM      29.71F
CROOKSTON      FAIR      63  52  67 E5        29.70F
$$
  *****  WEATHER ACROSS CENTRAL AND WEST MINNESOTA  *****

CITY           SKY/WX    TMP DP  RH WIND       PRES   REMARKS
BEMIDJI        FAIR      60  46  59 CALM      29.74F
PARK RAPIDS    FAIR      67  38  34 S9        29.76S
WADENA         MOCLDY    66  43  42 S8        29.77F
DETROIT LAKES  FAIR      66  45  45 S10       29.76S
MOORHEAD       FAIR      73  34  23 W13       29.72F
FERGUS FALLS   FAIR      66  45  45 SW13      29.75S
ELBOW LAKE     FAIR      66  46  48 W12       29.79F
MORRIS MN      FAIR      70  45  40 SW9       29.80S
STAPLES        FAIR      64  39  39 S8        29.78F
WHEATON        FAIR      72  37  28 SW16G23   29.80S
$$
  *****  WEATHER ELSEWHERE ACROSS MINNESOTA  *****

CITY           SKY/WX    TMP DP  RH WIND       PRES   REMARKS
DULUTH         FAIR      68  42  38 SW8       29.79S
INTRNTL FALLS  MOCLDY    67  39  35 W8        29.72F
ELY            FAIR      68  36  30 SW5       29.75S
CLOQUET        FAIR      66  39  37 SW3       29.80S
BRAINERD       FAIR      67  44  43 S8        29.80S
HIBBING        FAIR      68  39  34 SW7       29.76S
ALEXANDRIA     FAIR      68  44  42 SW7       29.82F
SAINT CLOUD    FAIR      67  46  47 SW6       29.83S
MINNEAPOLIS    MOCLDY    70  46  42 SW7       29.86S
$$

  *****  WEATHER ACROSS SOUTH DAKOTA  *****

CITY           SKY/WX    TMP DP  RH WIND       PRES   REMARKS
SIOUX FALLS    MOCLDY    65  50  58 W3        29.91R
BROOKINGS      FAIR      64  48  56 W7        29.91R
WATERTOWN      FAIR      63  46  54 SW14      29.85S
HURON          MOCLDY    69  42  37 W8        29.85S
SISSETON         N/A     70  46  42 SW13      29.78F
ABERDEEN       FAIR      69  37  30 N10       29.81R
MITCHELL       FAIR      69  47  45 SW9       29.90S
PIERRE         FAIR      71  39  31 NW10      29.88R
MOBRIDGE       FAIR      68  40  35 W9        29.82F
RAPID CITY     PTSUNNY   68  34  28 NW14      30.00R
$$

  *****  SOME WEATHER IN NEARBY STATES *****

CITY           SKY/WX    TMP DP  RH WIND       PRES   REMARKS
GLASGOW MT     PTSUNNY   75  32  20 NW21G28   29.93R
GREAT FALLS MT CLOUDY    69  37  30 N7        30.10S
CHEYENNE WY    FAIR      56  31  38 N12G20    30.20R
SCOTTSBLUFF NE FAIR      62  43  49 CALM      30.10F
OMAHA NE       MOCLDY    69  54  58 NE5       29.89S
DES MOINES IA  MOCLDY    65  56  72 NE7       29.86F
DAVENPORT IA   FAIR      69  62  78 NE9       29.82F
CHICAGO IL     MOCLDY    70  53  54 E7        29.84F
EAU CLAIRE WI  FAIR      66  47  50 SW6       29.86S
LA CROSSE WI   LGT RAIN  62  56  80 N3        29.88S
$$

  *****  SOME NATIONAL WEATHER *****

CITY           SKY/WX    TMP DP  RH WIND       PRES   REMARKS
LA GUARDIA NY  FAIR      65  55  70 VRB5      29.89R
RALEIGH NC     MOCLDY    77  67  71 SW8       29.87S
ATLANTA GA     FAIR      77  69  76 SW6       29.98S
NEW ORLEANS LA FAIR      82  75  79 S7        29.96F
OKLAHOMA CITY  FAIR      88  57  34 NW10      29.71F
ALBUQUERQUE NM FAIR      80  13   8 NW14      30.02R
SALT LAKE CITY FAIR      70  38  31 NW8       30.19F
LOS ANGELES CA FAIR      65  55  70 W16       30.03S
BOISE ID       FAIR      76  33  21 W7        30.14S
SEATTLE WA     FAIR      85  43  22 N7        30.05S
$$

*** WEATHER ACROSS MANITOBA...SASKATCHEWAN AND ONTARIO ***
                ***ONTARIO***

CITY           SKY/WX    TMP DP  RH WIND       PRES   REMARKS
GERALDTON      MOCLDY    66  50  55 S12G17    29.72F
THUNDER BAY    MOCLDY    63  48  59 NE5       29.73R
SIOUX LOOKOUT  LGT RAIN  61  45  55 VRB5      29.71
TORONTO        MOCLDY    59  52  77 E5        29.89F
BIG TROUT LK   MOCLDY    57  46  67 W10G18      N/A
PICKLE LAKE    MOCLDY    68  41  37 SW8       29.67F
DRYDEN         MOCLDY    63  45  51 NW5       29.71F
KENORA         PTCLDY    64  39  39 VRB2      29.70S
$$
                *** MANITOBA***

CITY           SKY/WX    TMP DP  RH WIND       PRES   REMARKS
BRANDON        MOSUNNY   63  43  48 NW14      29.75R
DAUPHIN        LGT RAIN  55  50  82 N16       29.77R
ISLAND LAKE    NOT AVBL
PILOT MOUND      N/A     52  46  82 SW9         N/A
THE PAS        CLOUDY    46  45  93 N13G21    29.77R
THOMPSON       CLOUDY    52  46  82 NW8       29.69R
WINNIPEG       PTSUNNY   64  45  48 NW16      29.69S
LYNN LAKE      CLOUDY    41  41 100 N10       29.81R FOG
CHURCHILL      LGT RAIN  36  34  93 NE10      29.78S
GILLAM         LGT RAIN  48  46  93 NE6       29.67R
$$
                ***SASKATCHEWAN***

CITY           SKY/WX    TMP DP  RH WIND       PRES   REMARKS
ESTEVAN        MOSUNNY   66  37  34 NW26G32   29.82R
KINDERSLEY     MOSUNNY   72  36  26 N17G25    29.95R
LLOYDMINSTER   MOSUNNY   72  39  30 N10G20    29.95R
PRINCE ALBERT  MOSUNNY   66  43  42 N16G22    29.86R
REGINA         MOSUNNY   68  36  30 N18G29    29.84R
YORKTON          N/A     61  43  51 NW16G25   29.80R


USA.gov is the U.S. government's official web portal to all federal, state and local government web resources and services.